Regional Weather Roundup
Issued by NWS Newport/Morehead, NC

Current Version | Previous Version | Graphics & Text | Print | Product List | Glossary Off
Versions: 1 2 3 4 5 6 7 8 9 10 11 12 13 14 15 16 17 18 19 20 21 22 23 24 25 26 27 28 29 30 31 32 33 34 35 36 37 38 39 40 41 42 43 44 45 46 47 48 49 50

072
ASUS42 KMHX 241026
RWRMHX
WEATHER ROUNDUP FOR EASTERN NORTH CAROLINA
NATIONAL WEATHER SERVICE NEWPORT/MOREHEAD CITY NC
600 AM EDT THU AUG 24 2017

NOTE: "FAIR" INDICATES FEW OR NO CLOUDS BELOW 12,000 FEET
WITH NO SIGNIFICANT WEATHER AND/OR OBSTRUCTIONS TO VISIBILITY

NCZ015>017-031-032-045>047-102-103-241100-
NORTH COAST

CITY           SKY/WX    TMP DP  RH WIND       PRES   REMARKS
EDENTON        CLOUDY    74  72  92 CALM      29.89R
ELIZABETH CITY CLOUDY    75  72  90 N12       29.87R
KITTY HAWK     CLOUDY    75  71  86 NE9       29.84R
MANTEO         CLOUDY    76  71  86 NE17G24   29.85R

$$

NCZ045>047-081-094-103-104-241100-
CENTRAL COAST

CITY           SKY/WX    TMP DP  RH WIND       PRES   REMARKS
FRISCO         PTCLDY    78  75  90 W8        29.84R

$$

NCZ095-097-098-100-101-241100-
SOUTHERN COAST

CITY           SKY/WX    TMP DP  RH WIND       PRES   REMARKS
BEAUFORT       CLOUDY    73  73 100 N8        29.87R
CEDAR ISLAND   NOT AVBL
JACKSONVILLE   CLOUDY    73  73 100 N6        29.87S
PINEY ISLAND   CLOUDY   N/A N/A N/A NW7       29.86S
WILMINGTON     CLOUDY    73  71  93 N6        29.84F


$$

NCZ011>013-027>030-043-044-078>080-089-090>093-098-241100-
COASTAL PLAIN

CITY           SKY/WX    TMP DP  RH WIND       PRES   REMARKS
AHOSKIE          N/A     69  69  98 CALM      29.91R
CLINTON        MOCLDY    72  72 100 CALM      29.89R
ELIZABETHTOWN  NOT AVBL
GOLDSBORO      CLOUDY    73  71  91 SW1       29.89R
GREENVILLE     CLOUDY    72  72 100 N5        29.90S
HAVELOCK       LGT RAIN  74  71  91 N7        29.88S
KENANSVILLE    CLOUDY    70  70 100 CALM      29.88S FOG
KINSTON        CLOUDY    73  73  97 CALM      29.89S
NEW BERN       CLOUDY    73  73 100 NW5       29.88F
RICHLANDS      CLOUDY    72  72 100 N5        29.88F
ROCKY MOUNT    CLOUDY    73  73 100 N6        29.89S
WASHINGTON     CLOUDY    73  72  96 N6        29.88S
WHITEVILLE     CLOUDY    72  71  97 CALM      29.86R

$$

AMZ130-135-150-152-154-156-158-170-250-252-270-ANZ085-086-088-633-658-670-241100-
MARINE OBSERVATIONS

STATION/POSITION TIME  TEMP    WIND        PRES    WAVE   SWELL
                       AIR SEA DIR/SP/G            HT/PER HT/PER
                 (UTC) (F)     (DEG/KT/KT) (MB)    (FT/S) (FT/S)
CHESAPEAKE LIGHT NOT AVBL
64 E VA BEACH    0950   76 78   20/ 21/ 25 1010.7    5/ 5   2/ 8
DUCK             1000   76 71   30/ 20/ 22 1010.5
2 E DUCK         1000      71                N/A     5/ 5
OREGON INLET     1000   74 75   10/  6/  9 1010.4
13E OREGON INLT  0948      79                N/A     3/ 9   2/ 9
HATTERAS CG      1000   78 80  300/ 11/ 13 1010.5
DIAMOND BUOY     0950   80 85  310/ 12/ 14 1010.5    3/ 5   2/ 9
CAPE LOOKOUT     1000   74     340/ 11/ 13 1010.9
BEAUFORT LAB     1000   74 81  350/  8/ 11 1010.7
30 SE NEW RVR IN 1008   75 83  330/ 14/ 21 1011.1
30 SE NEW RVR IN 1013      83                N/A     3/ 8
27 SE WRIGHTSVLE 1008   78 83  310/ 10/ 14 1010.4
5 SE WRIGHTSVLE  1008   77 83  250/  4/  6 1011.2
225 S CAPE HAT   0950   81 84  220/ 17/ 21 1011.7    4/ 9   2/ 9
41 SE CHARLESTON 1010   83 84  240/ 17/ 23 1010.4

$$




USA.gov is the U.S. government's official web portal to all federal, state and local government web resources and services.